Lid_Strength_Index
4 3 3 3 4 4 5 2 4 0 -1 5 3 6 5 5 5 4 5 5 6 7 7 8 8 10 8 4 5 6 5 7 9 8 5 5 6 7 7 11 12 9 10 13
3 3 3 3 4 4 1 3 3 -0 1 7 5 5 5 5 5 5 6 6 6 5 7 9 7 7 5 4 5 6 5 7 10 10 7 6 7 6 6 7 7 9 11 15
3 3 3 3 4 4 1 3 5 3 2 2 5 6 6 6 4 5 5 5 5 6 7 6 8 8 6 5 5 5 5 7 8 12 9 7 8 7 6 7 9 9 9 12
3 3 3 3 3 3 1 3 4 3 5 5 4 5 5 7 7 5 4 6 6 6 8 8 8 7 7 5 6 5 5 9 8 8 8 7 7 7 7 8 7 9 8 10
3 3 3 3 3 4 2 4 4 3 3 4 5 6 6 7 6 6 6 7 6 6 8 8 12 7 7 9 6 7 5 10 8 11 8 7 8 7 7 7 7 7 7 8
3 3 3 2 3 3 2 1 1 3 6 5 5 5 6 6 5 5 4 5 6 6 6 4 4 4 5 5 6 7 8 9 9 11 8 8 10 8 7 7 6 7 9 10
4 3 2 2 2 3 0 1 2 4 6 5 4 5 5 6 5 6 5 4 5 4 3 3 3 4 4 5 5 5 7 9 9 11 11 13 10 8 6 8 7 6 7 7
4 4 2 2 2 3 0 0 2 4 6 4 5 5 5 5 4 5 5 4 3 2 4 6 8 8 7 7 5 6 5 8 13 14 16 12 9 7 8 8 10 6 7 7
4 4 2 2 2 2 1 -0 -0 2 5 5 4 5 4 5 5 5 5 3 2 3 5 6 10 15 12 11 9 5 5 6 9 9 13 17 11 6 5 5 11 6 6 6
4 4 3 2 2 2 2 0 -1 2 4 3 3 4 4 3 4 5 5 4 4 3 6 7 9 10 8 11 11 10 9 8 10 10 12 13 7 6 4 11 11 5 5 6
4 4 3 2 2 2 2 0 -2 2 3 3 2 2 3 3 4 6 5 5 5 5 7 7 8 9 7 9 8 10 10 11 10 9 11 17 5 6 9 7 5 4 5 5
4 4 3 2 2 2 3 1 -1 -1 3 3 1 1 1 1 2 3 3 4 5 4 5 5 5 8 6 8 10 6 10 8 10 9 10 5 4 5 4 4 4 4 4 4
3 4 3 2 2 2 3 1 -0 1 3 3 2 3 1 -0 0 0 4 3 3 3 3 5 5 8 5 8 8 7 6 5 7 8 6 6 5 4 3 3 3 3 3 3
4 4 4 3 2 2 3 1 -0 1 2 5 4 0 1 -0 -0 1 1 1 1 2 2 5 5 6 4 6 6 7 6 6 6 7 6 5 4 4 3 3 3 3 3 3
3 4 4 3 3 2 2 -1 -0 -1 3 5 4 2 1 0 1 1 1 1 2 3 4 5 6 4 5 4 5 7 5 6 7 8 5 5 5 4 3 3 3 3 3 4
4 4 4 4 3 3 0 3 -0 -1 -0 4 6 2 2 1 1 2 2 1 2 2 4 4 3 4 5 7 8 5 4 4 4 5 3 4 3 3 3 3 3 3 3 3
4 4 4 4 4 3 2 3 1 2 -0 4 5 5 2 1 2 2 2 2 1 3 3 4 4 4 4 6 10 5 4 3 3 3 3 4 3 4 2 2 2 2 2 2
4 3 5 4 4 3 2 -0 2 2 2 2 6 6 5 2 4 5 2 4 3 4 4 3 5 5 5 9 5 4 4 3 3 3 2 3 2 2 3 2 2 3 3 2
3 4 4 2 2 2 1 1 2 -1 2 5 5 7 8 2 4 3 4 3 6 4 5 5 4 10 14 7 5 4 4 4 4 3 3 3 3 3 3 3 2 3 3 2
4 4 2 4 2 2 0 1 3 3 3 3 6 4 7 4 4 5 5 4 6 7 6 4 7 9 5 3 3 3 3 3 3 4 4 3 3 3 3 3 2 2 2 2
3 3 4 1 2 1 3 5 6 5 6 4 4 4 6 3 6 7 4 7 5 9 7 7 8 8 5 3 3 2 2 2 2 3 2 2 2 2 3 3 2 2 2 2
3 2 0 1 3 5 7 7 6 6 7 4 5 5 4 4 3 5 5 7 6 10 5 7 12 6 4 3 3 3 2 2 2 2 3 3 2 2 2 2 2 1 1 1
2 3 4 6 6 12 10 10 8 7 5 4 4 6 4 4 4 6 6 8 8 5 8 9 8 5 3 3 3 3 2 2 2 2 2 2 2 2 2 2 1 1 1 1
5 6 12 8 9 8 7 6 6 5 4 4 4 5 5 4 6 6 9 6 5 9 10 10 5 4 3 3 2 3 3 2 2 2 2 2 2 2 2 2 1 1 1 1
6 6 12 8 6 5 4 4 4 4 3 4 5 5 5 6 7 6 7 9 10 9 9 6 5 3 3 3 3 3 2 2 2 2 2 2 2 2 2 1 1 2 1 2
5 5 7 6 6 6 5 5 5 4 3 3 4 6 7 8 7 8 9 10 10 7 5 3 4 3 3 3 2 2 2 2 2 2 2 2 2 2 2 1 1 1 2 2
7 7 5 6 6 6 5 4 4 2 4 6 6 9 9 6 8 8 7 8 6 4 4 3 2 3 3 2 2 2 2 2 2 2 2 2 1 1 2 2 2 2 2 1